Volver al catálogo

STARLINK-35639

ActivoComunicacionesVLEO
NORAD 66382·PAYLOAD·🇺🇸 United States

Lanzado Nov 8, 2025 desde Cape Canaveral Space Force Station

Loading…

Próximos Pases (próximas 24 horas)

TLE

ActualizadoSource: CelesTrak SupGP

Época: Sep 14, 2026, 22:51 UTC

1 66382C 25257C   26257.95256944  .00029804  00000+0  88077-3 0  2574
2 66382  53.1591  55.7975 0000993  67.2033 177.1621 15.34369026    16

Sigue STARLINK-35639 en tiempo real con AllMySat

Download on the App Store